TimeEDT,TemperatureF,Dew PointF,Humidity,Sea Level PressureIn,VisibilityMPH,Wind Direction,Wind SpeedMPH,Gust SpeedMPH,PrecipitationIn,Events,Conditions,WindDirDegrees,DateUTC
12:19 AM,71.6,62.6,73,29.94,10.0,NNE,15.0,23.0,N/A,,Mostly Cloudy,20,2013-07-20 04:19:00
12:56 AM,69.1,62.1,78,29.89,10.0,NNW,5.8,-,N/A,,Overcast,330,2013-07-20 04:56:00
1:27 AM,69.8,62.6,78,29.90,10.0,SSW,6.9,-,N/A,,Mostly Cloudy,200,2013-07-20 05:27:00
1:56 AM,71.1,64.0,78,29.83,10.0,SSW,9.2,-,N/A,,Clear,210,2013-07-20 05:56:00
2:56 AM,71.1,64.0,78,29.80,10.0,SW,9.2,17.3,N/A,,Clear,220,2013-07-20 06:56:00
3:24 AM,71.6,64.4,78,29.85,10.0,SW,12.7,18.4,N/A,,Mostly Cloudy,230,2013-07-20 07:24:00
3:39 AM,71.6,64.4,78,29.85,10.0,SW,12.7,21.9,N/A,,Mostly Cloudy,220,2013-07-20 07:39:00
3:56 AM,71.1,64.9,81,29.81,9.0,SW,12.7,23.0,N/A,,Scattered Clouds,230,2013-07-20 07:56:00
4:56 AM,71.1,63.0,75,29.85,10.0,WNW,16.1,23.0,N/A,,Mostly Cloudy,300,2013-07-20 08:56:00
5:56 AM,69.1,62.1,78,29.84,10.0,West,9.2,21.9,0.00,Rain,Light Rain,270,2013-07-20 09:56:00
6:56 AM,66.9,63.0,87,29.86,4.0,SW,10.4,17.3,0.04,Rain,Rain,230,2013-07-20 10:56:00
7:56 AM,66.9,64.0,90,29.81,10.0,SW,16.1,26.5,0.04,,Mostly Cloudy,230,2013-07-20 11:56:00
8:56 AM,69.1,64.9,87,29.83,10.0,West,4.6,-,0.00,Rain,Light Rain,260,2013-07-20 12:56:00
9:53 AM,69.8,66.2,88,29.88,10.0,Variable,5.8,-,0.00,,Partly Cloudy,0,2013-07-20 13:53:00
9:56 AM,70.0,66.0,87,29.84,10.0,WSW,6.9,-,0.00,,Clear,240,2013-07-20 13:56:00
10:56 AM,72.0,64.0,76,29.84,10.0,WSW,8.1,-,N/A,,Clear,250,2013-07-20 14:56:00
11:41 AM,71.6,62.6,73,29.90,10.0,West,12.7,20.7,N/A,,Mostly Cloudy,270,2013-07-20 15:41:00
11:56 AM,73.0,64.0,73,29.85,10.0,West,12.7,-,N/A,,Mostly Cloudy,280,2013-07-20 15:56:00
12:38 PM,75.2,62.6,65,29.90,10.0,West,11.5,-,N/A,,Mostly Cloudy,270,2013-07-20 16:38:00
12:56 PM,75.9,63.0,64,29.86,10.0,West,8.1,18.4,N/A,,Mostly Cloudy,270,2013-07-20 16:56:00
1:15 PM,75.2,62.6,65,29.90,10.0,WSW,12.7,20.7,N/A,,Mostly Cloudy,250,2013-07-20 17:15:00
1:56 PM,77.0,63.0,62,29.85,10.0,West,12.7,18.4,N/A,,Mostly Cloudy,270,2013-07-20 17:56:00
2:56 PM,75.9,63.0,64,29.86,10.0,West,10.4,18.4,N/A,,Overcast,270,2013-07-20 18:56:00
3:56 PM,75.9,63.0,64,29.85,10.0,West,12.7,-,N/A,,Mostly Cloudy,270,2013-07-20 19:56:00
4:56 PM,75.9,64.9,69,29.86,10.0,WNW,8.1,-,N/A,,Mostly Cloudy,290,2013-07-20 20:56:00
5:38 PM,75.2,64.4,69,29.90,10.0,West,5.8,-,N/A,,Mostly Cloudy,260,2013-07-20 21:38:00
5:49 PM,75.2,66.2,73,29.90,10.0,West,6.9,-,N/A,,Scattered Clouds,270,2013-07-20 21:49:00
5:56 PM,75.0,64.9,71,29.86,10.0,West,6.9,-,N/A,,Scattered Clouds,270,2013-07-20 21:56:00
6:56 PM,73.9,64.0,71,29.87,10.0,WNW,10.4,-,N/A,,Mostly Cloudy,300,2013-07-20 22:56:00
7:56 PM,71.1,62.1,73,29.89,10.0,NW,8.1,-,N/A,,Mostly Cloudy,310,2013-07-20 23:56:00
8:56 PM,69.1,64.0,84,29.91,10.0,West,4.6,-,N/A,,Mostly Cloudy,280,2013-07-21 00:56:00
9:56 PM,69.1,64.0,84,29.92,10.0,NW,5.8,-,N/A,,Mostly Cloudy,320,2013-07-21 01:56:00
10:56 PM,66.9,62.1,84,29.93,10.0,NW,4.6,-,N/A,,Clear,310,2013-07-21 02:56:00
11:56 PM,64.9,63.0,93,29.95,10.0,Calm,Calm,-,N/A,,Clear,0,2013-07-21 03:56:00